Location: Gazon
(48.1318°N, 1.2708°W)
Time: 21:55:06
(UTC+00:00)

Cosmos 2084 Rocket - Pass Details

Date: 18 September 2020
Orbit: 545 x 635 km, 62.8° (Epoch: 25 October)

Event Time Altitude Azimuth Distance (km) Brightness Sun altitude
Rises 19:08:28 0° 314° (NW) 2,855 8.1 -10.4°
Reaches altitude 10° 19:10:45 10° 310° (NW) 1,963 7.3 -10.8°
Maximum altitude 19:15:04 51° 235° (SW) 777 4.3 -11.5°
Drops below altitude 10° 19:19:27 10° 159° (SSE) 1,995 5.8 -12.2°
Enters shadow 19:20:28 - 157° (SSE) 2,387 6.2 -12.3°
